<?xml version="1.0" encoding="UTF-8" standalone="no" ?>
<gpx xmlns="http://www.topografix.com/GPX/1/1" xmlns:xsi="http://www.w3.org/2001/XMLSchema-instance" xsi:schemaLocation="http://www.topografix.com/GPX/1/1 http://www.topografix.com/GPX/1/1/gpx.xsd" version="1.1" creator="VisuGPX - https://www.visugpx.com">
  <metadata>
    <name>LE VIEUX-MARCHE</name>
    <desc><![CDATA[Départ du Bourg du VIEUX-MARCHE - Parking en face de l\'Eglise]]></desc>
  </metadata>
  <trk>
    <name><![CDATA[Bernard]]></name>
    <trkseg>
      <trkpt lat="48.60717" lon="-3.44914">
        <ele>122</ele>
        <time>2012-10-04T10:52:26Z</time>
      </trkpt>
      <trkpt lat="48.60768" lon="-3.44964">
        <ele>120.1</ele>
        <time>2012-10-04T10:52:26Z</time>
      </trkpt>
      <trkpt lat="48.60773" lon="-3.45032">
        <ele>118.8</ele>
        <time>2012-10-04T10:52:26Z</time>
      </trkpt>
      <trkpt lat="48.60776" lon="-3.45089">
        <ele>115.6</ele>
        <time>2012-10-04T10:52:26Z</time>
      </trkpt>
      <trkpt lat="48.60783" lon="-3.4515">
        <ele>111.7</ele>
        <time>2012-10-04T10:52:26Z</time>
      </trkpt>
      <trkpt lat="48.60786" lon="-3.45223">
        <ele>109.8</ele>
        <time>2012-10-04T10:52:26Z</time>
      </trkpt>
      <trkpt lat="48.6081" lon="-3.45173">
        <ele>112</ele>
        <time>2012-10-04T10:52:26Z</time>
      </trkpt>
      <trkpt lat="48.60829" lon="-3.4511">
        <ele>113.3</ele>
        <time>2012-10-04T10:52:26Z</time>
      </trkpt>
      <trkpt lat="48.60848" lon="-3.45043">
        <ele>115.4</ele>
        <time>2012-10-04T10:52:26Z</time>
      </trkpt>
      <trkpt lat="48.60863" lon="-3.44973">
        <ele>115</ele>
        <time>2012-10-04T10:52:26Z</time>
      </trkpt>
      <trkpt lat="48.60879" lon="-3.44905">
        <ele>116.4</ele>
        <time>2012-10-04T10:52:26Z</time>
      </trkpt>
      <trkpt lat="48.60892" lon="-3.44834">
        <ele>115.9</ele>
        <time>2012-10-04T10:52:26Z</time>
      </trkpt>
      <trkpt lat="48.60902" lon="-3.44758">
        <ele>113.5</ele>
        <time>2012-10-04T10:52:26Z</time>
      </trkpt>
      <trkpt lat="48.60921" lon="-3.44701">
        <ele>112.9</ele>
        <time>2012-10-04T10:52:26Z</time>
      </trkpt>
      <trkpt lat="48.6097" lon="-3.44698">
        <ele>107.6</ele>
        <time>2012-10-04T10:52:26Z</time>
      </trkpt>
      <trkpt lat="48.6101" lon="-3.44705">
        <ele>103.2</ele>
        <time>2012-10-04T10:52:26Z</time>
      </trkpt>
      <trkpt lat="48.61049" lon="-3.44742">
        <ele>97.7</ele>
        <time>2012-10-04T10:52:26Z</time>
      </trkpt>
      <trkpt lat="48.61073" lon="-3.44782">
        <ele>90.7</ele>
        <time>2012-10-04T10:52:26Z</time>
      </trkpt>
      <trkpt lat="48.61084" lon="-3.4484">
        <ele>82.2</ele>
        <time>2012-10-04T10:52:26Z</time>
      </trkpt>
      <trkpt lat="48.61097" lon="-3.44822">
        <ele>81.2</ele>
        <time>2012-10-04T10:52:26Z</time>
      </trkpt>
      <trkpt lat="48.61116" lon="-3.44767">
        <ele>81.1</ele>
        <time>2012-10-04T10:52:26Z</time>
      </trkpt>
      <trkpt lat="48.61114" lon="-3.44705">
        <ele>79.9</ele>
        <time>2012-10-04T10:52:26Z</time>
      </trkpt>
      <trkpt lat="48.61118" lon="-3.44668">
        <ele>79.3</ele>
        <time>2012-10-04T10:52:26Z</time>
      </trkpt>
      <trkpt lat="48.61082" lon="-3.44671">
        <ele>85.7</ele>
        <time>2012-10-04T10:52:26Z</time>
      </trkpt>
      <trkpt lat="48.61079" lon="-3.4461">
        <ele>78.7</ele>
        <time>2012-10-04T10:52:26Z</time>
      </trkpt>
      <trkpt lat="48.61059" lon="-3.4456">
        <ele>79.4</ele>
        <time>2012-10-04T10:52:26Z</time>
      </trkpt>
      <trkpt lat="48.6103" lon="-3.44515">
        <ele>83.2</ele>
        <time>2012-10-04T10:52:26Z</time>
      </trkpt>
      <trkpt lat="48.61027" lon="-3.44458">
        <ele>77.1</ele>
        <time>2012-10-04T10:52:26Z</time>
      </trkpt>
      <trkpt lat="48.61032" lon="-3.44437">
        <ele>77.3</ele>
        <time>2012-10-04T10:52:26Z</time>
      </trkpt>
      <trkpt lat="48.61064" lon="-3.44409">
        <ele>78.4</ele>
        <time>2012-10-04T10:52:26Z</time>
      </trkpt>
      <trkpt lat="48.61076" lon="-3.44382">
        <ele>78.6</ele>
        <time>2012-10-04T10:52:26Z</time>
      </trkpt>
      <trkpt lat="48.61085" lon="-3.44344">
        <ele>75.3</ele>
        <time>2012-10-04T10:52:26Z</time>
      </trkpt>
      <trkpt lat="48.61091" lon="-3.44292">
        <ele>75.2</ele>
        <time>2012-10-04T10:52:26Z</time>
      </trkpt>
      <trkpt lat="48.61076" lon="-3.44263">
        <ele>75.8</ele>
        <time>2012-10-04T10:52:26Z</time>
      </trkpt>
      <trkpt lat="48.61092" lon="-3.44214">
        <ele>76.7</ele>
        <time>2012-10-04T10:52:26Z</time>
      </trkpt>
      <trkpt lat="48.61125" lon="-3.44184">
        <ele>75.4</ele>
        <time>2012-10-04T10:52:26Z</time>
      </trkpt>
      <trkpt lat="48.61149" lon="-3.44152">
        <ele>74.9</ele>
        <time>2012-10-04T10:52:26Z</time>
      </trkpt>
      <trkpt lat="48.61166" lon="-3.44127">
        <ele>73.2</ele>
        <time>2012-10-04T10:52:26Z</time>
      </trkpt>
      <trkpt lat="48.61168" lon="-3.44083">
        <ele>73.6</ele>
        <time>2012-10-04T10:52:26Z</time>
      </trkpt>
      <trkpt lat="48.61175" lon="-3.44028">
        <ele>75.5</ele>
        <time>2012-10-04T10:52:26Z</time>
      </trkpt>
      <trkpt lat="48.61178" lon="-3.43977">
        <ele>74.9</ele>
        <time>2012-10-04T10:52:26Z</time>
      </trkpt>
      <trkpt lat="48.61185" lon="-3.43932">
        <ele>75.6</ele>
        <time>2012-10-04T10:52:26Z</time>
      </trkpt>
      <trkpt lat="48.61173" lon="-3.43889">
        <ele>72.8</ele>
        <time>2012-10-04T10:52:26Z</time>
      </trkpt>
      <trkpt lat="48.61179" lon="-3.43843">
        <ele>74.4</ele>
        <time>2012-10-04T10:52:26Z</time>
      </trkpt>
      <trkpt lat="48.61177" lon="-3.43789">
        <ele>71.2</ele>
        <time>2012-10-04T10:52:26Z</time>
      </trkpt>
      <trkpt lat="48.61185" lon="-3.43732">
        <ele>70.8</ele>
        <time>2012-10-04T10:52:26Z</time>
      </trkpt>
      <trkpt lat="48.61208" lon="-3.43681">
        <ele>71.7</ele>
        <time>2012-10-04T10:52:26Z</time>
      </trkpt>
      <trkpt lat="48.6121" lon="-3.43629">
        <ele>67</ele>
        <time>2012-10-04T10:52:26Z</time>
      </trkpt>
      <trkpt lat="48.61206" lon="-3.43657">
        <ele>69</ele>
        <time>2012-10-04T10:52:26Z</time>
      </trkpt>
      <trkpt lat="48.61185" lon="-3.43623">
        <ele>66.5</ele>
        <time>2012-10-04T10:52:26Z</time>
      </trkpt>
      <trkpt lat="48.61191" lon="-3.43555">
        <ele>68.1</ele>
        <time>2012-10-04T10:52:26Z</time>
      </trkpt>
      <trkpt lat="48.61206" lon="-3.43499">
        <ele>69.8</ele>
        <time>2012-10-04T10:52:26Z</time>
      </trkpt>
      <trkpt lat="48.6123" lon="-3.43439">
        <ele>68.9</ele>
        <time>2012-10-04T10:52:26Z</time>
      </trkpt>
      <trkpt lat="48.61244" lon="-3.434">
        <ele>69.4</ele>
        <time>2012-10-04T10:52:26Z</time>
      </trkpt>
      <trkpt lat="48.61269" lon="-3.43356">
        <ele>67</ele>
        <time>2012-10-04T10:52:26Z</time>
      </trkpt>
      <trkpt lat="48.61291" lon="-3.43323">
        <ele>65.6</ele>
        <time>2012-10-04T10:52:26Z</time>
      </trkpt>
      <trkpt lat="48.61311" lon="-3.43271">
        <ele>63.8</ele>
        <time>2012-10-04T10:52:26Z</time>
      </trkpt>
      <trkpt lat="48.61336" lon="-3.4323">
        <ele>63.7</ele>
        <time>2012-10-04T10:52:26Z</time>
      </trkpt>
      <trkpt lat="48.61353" lon="-3.43229">
        <ele>63.8</ele>
        <time>2012-10-04T10:52:26Z</time>
      </trkpt>
      <trkpt lat="48.61382" lon="-3.43222">
        <ele>62.5</ele>
        <time>2012-10-04T10:52:26Z</time>
      </trkpt>
      <trkpt lat="48.61412" lon="-3.43172">
        <ele>65.5</ele>
        <time>2012-10-04T10:52:26Z</time>
      </trkpt>
      <trkpt lat="48.6144" lon="-3.43127">
        <ele>63.6</ele>
        <time>2012-10-04T10:52:26Z</time>
      </trkpt>
      <trkpt lat="48.61453" lon="-3.43053">
        <ele>68.7</ele>
        <time>2012-10-04T10:52:26Z</time>
      </trkpt>
      <trkpt lat="48.61457" lon="-3.43011">
        <ele>74.1</ele>
        <time>2012-10-04T10:52:26Z</time>
      </trkpt>
      <trkpt lat="48.61459" lon="-3.42977">
        <ele>78.9</ele>
        <time>2012-10-04T10:52:26Z</time>
      </trkpt>
      <trkpt lat="48.61496" lon="-3.42954">
        <ele>64.8</ele>
        <time>2012-10-04T10:52:26Z</time>
      </trkpt>
      <trkpt lat="48.61515" lon="-3.429">
        <ele>61.7</ele>
        <time>2012-10-04T10:52:26Z</time>
      </trkpt>
      <trkpt lat="48.61513" lon="-3.42847">
        <ele>62.5</ele>
        <time>2012-10-04T10:52:26Z</time>
      </trkpt>
      <trkpt lat="48.6151" lon="-3.42778">
        <ele>64.1</ele>
        <time>2012-10-04T10:52:26Z</time>
      </trkpt>
      <trkpt lat="48.61518" lon="-3.42713">
        <ele>63</ele>
        <time>2012-10-04T10:52:26Z</time>
      </trkpt>
      <trkpt lat="48.6153" lon="-3.42662">
        <ele>58.3</ele>
        <time>2012-10-04T10:52:26Z</time>
      </trkpt>
      <trkpt lat="48.6154" lon="-3.42632">
        <ele>58.5</ele>
        <time>2012-10-04T10:52:26Z</time>
      </trkpt>
      <trkpt lat="48.61533" lon="-3.42575">
        <ele>56.8</ele>
        <time>2012-10-04T10:52:26Z</time>
      </trkpt>
      <trkpt lat="48.61528" lon="-3.42513">
        <ele>58</ele>
        <time>2012-10-04T10:52:26Z</time>
      </trkpt>
      <trkpt lat="48.61514" lon="-3.42464">
        <ele>61.1</ele>
        <time>2012-10-04T10:52:26Z</time>
      </trkpt>
      <trkpt lat="48.61501" lon="-3.42414">
        <ele>59.7</ele>
        <time>2012-10-04T10:52:26Z</time>
      </trkpt>
      <trkpt lat="48.61482" lon="-3.42377">
        <ele>61.3</ele>
        <time>2012-10-04T10:52:26Z</time>
      </trkpt>
      <trkpt lat="48.61488" lon="-3.42324">
        <ele>60.1</ele>
        <time>2012-10-04T10:52:26Z</time>
      </trkpt>
      <trkpt lat="48.61496" lon="-3.42271">
        <ele>62.8</ele>
        <time>2012-10-04T10:52:26Z</time>
      </trkpt>
      <trkpt lat="48.61506" lon="-3.42215">
        <ele>70.8</ele>
        <time>2012-10-04T10:52:26Z</time>
      </trkpt>
      <trkpt lat="48.61535" lon="-3.4219">
        <ele>71.9</ele>
        <time>2012-10-04T10:52:26Z</time>
      </trkpt>
      <trkpt lat="48.61566" lon="-3.4215">
        <ele>71.3</ele>
        <time>2012-10-04T10:52:26Z</time>
      </trkpt>
      <trkpt lat="48.61606" lon="-3.42126">
        <ele>60.3</ele>
        <time>2012-10-04T10:52:26Z</time>
      </trkpt>
      <trkpt lat="48.61638" lon="-3.42117">
        <ele>51.1</ele>
        <time>2012-10-04T10:52:26Z</time>
      </trkpt>
      <trkpt lat="48.61674" lon="-3.4214">
        <ele>51.1</ele>
        <time>2012-10-04T10:52:26Z</time>
      </trkpt>
      <trkpt lat="48.61673" lon="-3.42124">
        <ele>50.8</ele>
        <time>2012-10-04T10:52:26Z</time>
      </trkpt>
      <trkpt lat="48.61694" lon="-3.42156">
        <ele>55.8</ele>
        <time>2012-10-04T10:52:26Z</time>
      </trkpt>
      <trkpt lat="48.61716" lon="-3.42207">
        <ele>61.3</ele>
        <time>2012-10-04T10:52:26Z</time>
      </trkpt>
      <trkpt lat="48.61743" lon="-3.42251">
        <ele>62.5</ele>
        <time>2012-10-04T10:52:26Z</time>
      </trkpt>
      <trkpt lat="48.61784" lon="-3.42242">
        <ele>70.1</ele>
        <time>2012-10-04T10:52:26Z</time>
      </trkpt>
      <trkpt lat="48.61823" lon="-3.42263">
        <ele>76.9</ele>
        <time>2012-10-04T10:52:26Z</time>
      </trkpt>
      <trkpt lat="48.61847" lon="-3.42293">
        <ele>83</ele>
        <time>2012-10-04T10:52:26Z</time>
      </trkpt>
      <trkpt lat="48.61872" lon="-3.4234">
        <ele>87.7</ele>
        <time>2012-10-04T10:52:26Z</time>
      </trkpt>
      <trkpt lat="48.61906" lon="-3.42369">
        <ele>91.2</ele>
        <time>2012-10-04T10:52:26Z</time>
      </trkpt>
      <trkpt lat="48.6194" lon="-3.42372">
        <ele>92.6</ele>
        <time>2012-10-04T10:52:26Z</time>
      </trkpt>
      <trkpt lat="48.61965" lon="-3.42339">
        <ele>93.6</ele>
        <time>2012-10-04T10:52:26Z</time>
      </trkpt>
      <trkpt lat="48.61999" lon="-3.42375">
        <ele>97.4</ele>
        <time>2012-10-04T10:52:26Z</time>
      </trkpt>
      <trkpt lat="48.62025" lon="-3.42408">
        <ele>99</ele>
        <time>2012-10-04T10:52:26Z</time>
      </trkpt>
      <trkpt lat="48.62027" lon="-3.42477">
        <ele>101.1</ele>
        <time>2012-10-04T10:52:26Z</time>
      </trkpt>
      <trkpt lat="48.62027" lon="-3.42543">
        <ele>102</ele>
        <time>2012-10-04T10:52:26Z</time>
      </trkpt>
      <trkpt lat="48.62027" lon="-3.42611">
        <ele>104</ele>
        <time>2012-10-04T10:52:26Z</time>
      </trkpt>
      <trkpt lat="48.62029" lon="-3.4268">
        <ele>104.4</ele>
        <time>2012-10-04T10:52:26Z</time>
      </trkpt>
      <trkpt lat="48.62024" lon="-3.42745">
        <ele>107.1</ele>
        <time>2012-10-04T10:52:26Z</time>
      </trkpt>
      <trkpt lat="48.62029" lon="-3.42812">
        <ele>110.4</ele>
        <time>2012-10-04T10:52:26Z</time>
      </trkpt>
      <trkpt lat="48.62053" lon="-3.42868">
        <ele>110.5</ele>
        <time>2012-10-04T10:52:26Z</time>
      </trkpt>
      <trkpt lat="48.62066" lon="-3.42927">
        <ele>111.8</ele>
        <time>2012-10-04T10:52:26Z</time>
      </trkpt>
      <trkpt lat="48.6205" lon="-3.42985">
        <ele>114.7</ele>
        <time>2012-10-04T10:52:26Z</time>
      </trkpt>
      <trkpt lat="48.62024" lon="-3.43039">
        <ele>116</ele>
        <time>2012-10-04T10:52:26Z</time>
      </trkpt>
      <trkpt lat="48.62011" lon="-3.43106">
        <ele>117</ele>
        <time>2012-10-04T10:52:26Z</time>
      </trkpt>
      <trkpt lat="48.61992" lon="-3.43169">
        <ele>118.1</ele>
        <time>2012-10-04T10:52:26Z</time>
      </trkpt>
      <trkpt lat="48.61949" lon="-3.43194">
        <ele>117.3</ele>
        <time>2012-10-04T10:52:26Z</time>
      </trkpt>
      <trkpt lat="48.6192" lon="-3.43245">
        <ele>118</ele>
        <time>2012-10-04T10:52:26Z</time>
      </trkpt>
      <trkpt lat="48.61892" lon="-3.433">
        <ele>118.7</ele>
        <time>2012-10-04T10:52:26Z</time>
      </trkpt>
      <trkpt lat="48.61867" lon="-3.43355">
        <ele>120.2</ele>
        <time>2012-10-04T10:52:26Z</time>
      </trkpt>
      <trkpt lat="48.61832" lon="-3.43409">
        <ele>121.4</ele>
        <time>2012-10-04T10:52:26Z</time>
      </trkpt>
      <trkpt lat="48.61793" lon="-3.43429">
        <ele>120</ele>
        <time>2012-10-04T10:52:26Z</time>
      </trkpt>
      <trkpt lat="48.61749" lon="-3.4345">
        <ele>117.6</ele>
        <time>2012-10-04T10:52:26Z</time>
      </trkpt>
      <trkpt lat="48.61705" lon="-3.43467">
        <ele>116.9</ele>
        <time>2012-10-04T10:52:26Z</time>
      </trkpt>
      <trkpt lat="48.61671" lon="-3.43507">
        <ele>117.8</ele>
        <time>2012-10-04T10:52:26Z</time>
      </trkpt>
      <trkpt lat="48.61648" lon="-3.43567">
        <ele>119.4</ele>
        <time>2012-10-04T10:52:26Z</time>
      </trkpt>
      <trkpt lat="48.61621" lon="-3.43618">
        <ele>120.6</ele>
        <time>2012-10-04T10:52:26Z</time>
      </trkpt>
      <trkpt lat="48.61577" lon="-3.43636">
        <ele>119.9</ele>
        <time>2012-10-04T10:52:26Z</time>
      </trkpt>
      <trkpt lat="48.61542" lon="-3.43684">
        <ele>121.6</ele>
        <time>2012-10-04T10:52:26Z</time>
      </trkpt>
      <trkpt lat="48.61502" lon="-3.43713">
        <ele>122</ele>
        <time>2012-10-04T10:52:26Z</time>
      </trkpt>
      <trkpt lat="48.6146" lon="-3.43743">
        <ele>122</ele>
        <time>2012-10-04T10:52:26Z</time>
      </trkpt>
      <trkpt lat="48.61425" lon="-3.4378">
        <ele>121.2</ele>
        <time>2012-10-04T10:52:26Z</time>
      </trkpt>
      <trkpt lat="48.61415" lon="-3.43725">
        <ele>120.9</ele>
        <time>2012-10-04T10:52:26Z</time>
      </trkpt>
      <trkpt lat="48.61442" lon="-3.43666">
        <ele>121</ele>
        <time>2012-10-04T10:52:26Z</time>
      </trkpt>
      <trkpt lat="48.61464" lon="-3.43608">
        <ele>120</ele>
        <time>2012-10-04T10:52:26Z</time>
      </trkpt>
      <trkpt lat="48.61438" lon="-3.43555">
        <ele>119.3</ele>
        <time>2012-10-04T10:52:26Z</time>
      </trkpt>
      <trkpt lat="48.61401" lon="-3.43576">
        <ele>115.9</ele>
        <time>2012-10-04T10:52:26Z</time>
      </trkpt>
      <trkpt lat="48.61374" lon="-3.43633">
        <ele>116.2</ele>
        <time>2012-10-04T10:52:26Z</time>
      </trkpt>
      <trkpt lat="48.61362" lon="-3.437">
        <ele>116.3</ele>
        <time>2012-10-04T10:52:26Z</time>
      </trkpt>
      <trkpt lat="48.6134" lon="-3.43759">
        <ele>113.9</ele>
        <time>2012-10-04T10:52:26Z</time>
      </trkpt>
      <trkpt lat="48.61299" lon="-3.4379">
        <ele>108.2</ele>
        <time>2012-10-04T10:52:26Z</time>
      </trkpt>
      <trkpt lat="48.61262" lon="-3.43813">
        <ele>103.7</ele>
        <time>2012-10-04T10:52:26Z</time>
      </trkpt>
      <trkpt lat="48.61241" lon="-3.43849">
        <ele>100.2</ele>
        <time>2012-10-04T10:52:26Z</time>
      </trkpt>
      <trkpt lat="48.61227" lon="-3.4391">
        <ele>94.5</ele>
        <time>2012-10-04T10:52:26Z</time>
      </trkpt>
      <trkpt lat="48.61213" lon="-3.43971">
        <ele>87.6</ele>
        <time>2012-10-04T10:52:26Z</time>
      </trkpt>
      <trkpt lat="48.61199" lon="-3.44025">
        <ele>83.3</ele>
        <time>2012-10-04T10:52:26Z</time>
      </trkpt>
      <trkpt lat="48.61193" lon="-3.44081">
        <ele>85.2</ele>
        <time>2012-10-04T10:52:26Z</time>
      </trkpt>
      <trkpt lat="48.61173" lon="-3.44141">
        <ele>75.4</ele>
        <time>2012-10-04T10:52:26Z</time>
      </trkpt>
      <trkpt lat="48.6114" lon="-3.4416">
        <ele>74</ele>
        <time>2012-10-04T10:52:26Z</time>
      </trkpt>
      <trkpt lat="48.61104" lon="-3.44177">
        <ele>81.1</ele>
        <time>2012-10-04T10:52:26Z</time>
      </trkpt>
      <trkpt lat="48.61068" lon="-3.44204">
        <ele>83.4</ele>
        <time>2012-10-04T10:52:26Z</time>
      </trkpt>
      <trkpt lat="48.61043" lon="-3.44182">
        <ele>93</ele>
        <time>2012-10-04T10:52:26Z</time>
      </trkpt>
      <trkpt lat="48.61011" lon="-3.4419">
        <ele>94.2</ele>
        <time>2012-10-04T10:52:26Z</time>
      </trkpt>
      <trkpt lat="48.60986" lon="-3.44239">
        <ele>99.2</ele>
        <time>2012-10-04T10:52:26Z</time>
      </trkpt>
      <trkpt lat="48.60972" lon="-3.44308">
        <ele>100.7</ele>
        <time>2012-10-04T10:52:26Z</time>
      </trkpt>
      <trkpt lat="48.60931" lon="-3.44329">
        <ele>103.6</ele>
        <time>2012-10-04T10:52:26Z</time>
      </trkpt>
      <trkpt lat="48.60894" lon="-3.44362">
        <ele>105.7</ele>
        <time>2012-10-04T10:52:26Z</time>
      </trkpt>
      <trkpt lat="48.60855" lon="-3.44391">
        <ele>106.2</ele>
        <time>2012-10-04T10:52:26Z</time>
      </trkpt>
      <trkpt lat="48.60813" lon="-3.44412">
        <ele>108.6</ele>
        <time>2012-10-04T10:52:26Z</time>
      </trkpt>
      <trkpt lat="48.60768" lon="-3.44433">
        <ele>111.7</ele>
        <time>2012-10-04T10:52:26Z</time>
      </trkpt>
      <trkpt lat="48.60728" lon="-3.44466">
        <ele>111.1</ele>
        <time>2012-10-04T10:52:26Z</time>
      </trkpt>
      <trkpt lat="48.60692" lon="-3.44514">
        <ele>109.5</ele>
        <time>2012-10-04T10:52:26Z</time>
      </trkpt>
      <trkpt lat="48.60701" lon="-3.44577">
        <ele>112.2</ele>
        <time>2012-10-04T10:52:26Z</time>
      </trkpt>
      <trkpt lat="48.60727" lon="-3.44641">
        <ele>116.1</ele>
        <time>2012-10-04T10:52:26Z</time>
      </trkpt>
      <trkpt lat="48.60746" lon="-3.447">
        <ele>118.2</ele>
        <time>2012-10-04T10:52:26Z</time>
      </trkpt>
      <trkpt lat="48.6074" lon="-3.44765">
        <ele>120.2</ele>
        <time>2012-10-04T10:52:26Z</time>
      </trkpt>
      <trkpt lat="48.60727" lon="-3.44829">
        <ele>121.7</ele>
        <time>2012-10-04T10:52:26Z</time>
      </trkpt>
      <trkpt lat="48.60719" lon="-3.44883">
        <ele>122</ele>
        <time>2012-10-04T10:52:26Z</time>
      </trkpt>
      <trkpt lat="48.60718" lon="-3.44885">
        <ele>122</ele>
        <time>2012-10-04T10:52:26Z</time>
      </trkpt>
      <trkpt lat="48.60718" lon="-3.44888">
        <ele>122</ele>
        <time>2012-10-04T10:52:26Z</time>
      </trkpt>
      <trkpt lat="48.60717" lon="-3.4489">
        <ele>122</ele>
        <time>2012-10-04T10:52:26Z</time>
      </trkpt>
      <trkpt lat="48.60715" lon="-3.44891">
        <ele>122</ele>
        <time>2012-10-04T10:52:26Z</time>
      </trkpt>
      <trkpt lat="48.60715" lon="-3.44893">
        <ele>122</ele>
        <time>2012-10-04T10:52:26Z</time>
      </trkpt>
      <trkpt lat="48.60713" lon="-3.44895">
        <ele>122</ele>
        <time>2012-10-04T10:52:26Z</time>
      </trkpt>
      <trkpt lat="48.60712" lon="-3.44897">
        <ele>122</ele>
        <time>2012-10-04T10:52:26Z</time>
      </trkpt>
      <trkpt lat="48.60712" lon="-3.44899">
        <ele>122</ele>
        <time>2012-10-04T10:52:26Z</time>
      </trkpt>
      <trkpt lat="48.60713" lon="-3.44901">
        <ele>122</ele>
        <time>2012-10-04T10:52:26Z</time>
      </trkpt>
      <trkpt lat="48.60713" lon="-3.44903">
        <ele>122</ele>
        <time>2012-10-04T10:52:26Z</time>
      </trkpt>
      <trkpt lat="48.60714" lon="-3.44905">
        <ele>122</ele>
        <time>2012-10-04T10:52:26Z</time>
      </trkpt>
      <trkpt lat="48.60716" lon="-3.44907">
        <ele>122</ele>
        <time>2012-10-04T10:52:26Z</time>
      </trkpt>
      <trkpt lat="48.60717" lon="-3.44909">
        <ele>122</ele>
        <time>2012-10-04T10:52:26Z</time>
      </trkpt>
      <trkpt lat="48.60719" lon="-3.44911">
        <ele>122</ele>
        <time>2012-10-04T10:52:26Z</time>
      </trkpt>
      <trkpt lat="48.6072" lon="-3.44913">
        <ele>122</ele>
        <time>2012-10-04T10:52:26Z</time>
      </trkpt>
      <trkpt lat="48.60722" lon="-3.44915">
        <ele>122</ele>
        <time>2012-10-04T10:52:26Z</time>
      </trkpt>
      <trkpt lat="48.60723" lon="-3.44917">
        <ele>122</ele>
        <time>2012-10-04T10:52:26Z</time>
      </trkpt>
      <trkpt lat="48.60724" lon="-3.44919">
        <ele>121.9</ele>
        <time>2012-10-04T10:52:26Z</time>
      </trkpt>
      <trkpt lat="48.60726" lon="-3.44921">
        <ele>121.7</ele>
        <time>2012-10-04T10:52:26Z</time>
      </trkpt>
      <trkpt lat="48.60728" lon="-3.4492">
        <ele>121.7</ele>
        <time>2012-10-04T10:52:26Z</time>
      </trkpt>
      <trkpt lat="48.60728" lon="-3.44918">
        <ele>121.8</ele>
        <time>2012-10-04T10:52:26Z</time>
      </trkpt>
      <trkpt lat="48.60728" lon="-3.44919">
        <ele>121.7</ele>
        <time>2012-10-04T10:52:26Z</time>
      </trkpt>
    </trkseg>
  </trk>
</gpx>